Santa Fe, NM

2:07 AM MST on February 24, 2018 (GMT -0700)
Santa Fe Municipal

Weather History for KSAF - January, 2014

Change the Weather History Date:

Thursday, January 23, 2014

  Actual Average Record
Temperature  
Mean Temperature 21 °F -  
Max Temperature 28 °F 42 °F 57 °F (2009)
Min Temperature 10 °F 20 °F 10 °F (2007)
Degree Days  
Heating Degree Days 44    
Moisture  
Dew Point 14 °F    
Average Humidity 68    
Maximum Humidity 84    
Minimum Humidity 51    
Precipitation  
Precipitation 0.00 in - - ()
Sea Level Pressure  
Sea Level Pressure 30.34 in    
Wind  
Wind Speed 17 mph (SSE)    
Max Wind Speed 25 mph    
Max Gust Speed 33 mph    
Visibility 10 miles    
Events      
Averages and records for this station are not official NWS values.
T = Trace of Precipitation, MM = Missing Value Source: NWS Daily Summary

Daily Weather History Graph

Daily Weather History Graph

Search for Another Location

Airport or City:

Trip Planner

Search our weather history database for the weather conditions in past years. The results will help you decide how hot, cold, wet, or windy it might be!

Date:

Astronomy

Jan. 23, 2014 Rise Set
Actual Time 7:10 AM MST 5:22 PM MST
Civil Twilight 6:42 AM MST 5:50 PM MST
Nautical Twilight 6:11 AM MST 6:21 PM MST
Astronomical Twilight 5:41 AM MST 6:51 PM MST
Moon No Moon Rise 11:02 AM MST (1/23)
Length of Visible Light 11h 07m
Length of Day
10h 12m
Waning Gibbous, 54% of the Moon is Illuminated
Jan 23
Waning Gibbous
Jan 23
Last Quarter
Jan 30
New
Feb 6
First Quarter
Feb 14
Full

Hourly Weather History & Observations

Time (MST) Temp. Windchill Dew Point Humidity Pressure Visibility Wind Dir Wind Speed Gust Speed Precip Events Conditions
12:53 AM 28.0 °F 16.5 °F 12.0 °F 51% 30.03 in 10.0 mi SSE 15.0 mph - N/A   Clear
1:53 AM 27.0 °F 16.7 °F 12.9 °F 56% 30.04 in 10.0 mi SSE 11.5 mph - N/A   Clear
2:53 AM 27.0 °F 16.1 °F 15.1 °F 61% 30.03 in 10.0 mi SSE 12.7 mph - N/A   Clear
3:53 AM 27.0 °F 15.2 °F 15.1 °F 61% 30.06 in 10.0 mi SSE 15.0 mph - N/A   Clear
4:53 AM 27.0 °F 14.3 °F 16.0 °F 63% 30.11 in 10.0 mi SSE 17.3 mph - N/A   Clear
5:53 AM 26.1 °F 12.3 °F 16.0 °F 66% 30.13 in 10.0 mi SSE 19.6 mph 28.8 mph N/A   Clear
6:53 AM 25.0 °F 10.9 °F 16.0 °F 69% 30.19 in 10.0 mi SSE 19.6 mph 27.6 mph N/A   Clear
7:53 AM 24.1 °F 8.7 °F 17.1 °F 75% 30.25 in 10.0 mi SE 23.0 mph 31.1 mph N/A   Partly Cloudy
8:10 AM 24.1 °F 8.0 °F 17.1 °F 75% 30.22 in 10.0 mi SSE 25.3 mph 31.1 mph N/A   Mostly Cloudy
8:46 AM 24.1 °F 8.7 °F 18.0 °F 77% 30.26 in 10.0 mi SE 23.0 mph 32.2 mph N/A   Overcast
8:53 AM 24.1 °F 8.0 °F 18.0 °F 77% 30.31 in 10.0 mi SE 25.3 mph 32.2 mph N/A   Overcast
9:53 AM 24.1 °F 8.3 °F 17.1 °F 75% 30.36 in 9.0 mi SSE 24.2 mph 31.1 mph N/A   Overcast
10:26 AM 24.1 °F 8.3 °F 17.1 °F 75% 30.32 in 10.0 mi SSE 24.2 mph - N/A   Overcast
10:53 AM 25.0 °F 10.2 °F 16.0 °F 69% 30.38 in 10.0 mi SSE 21.9 mph 33.4 mph N/A   Overcast
11:53 AM 24.1 °F 8.0 °F 15.1 °F 69% 30.39 in 10.0 mi SSE 25.3 mph 33.4 mph N/A   Overcast
12:53 PM 26.1 °F 11.0 °F 14.0 °F 60% 30.37 in 10.0 mi SSE 24.2 mph - N/A   Mostly Cloudy
1:01 PM 27.0 °F 13.5 °F 14.0 °F 58% 30.33 in 10.0 mi SSE 19.6 mph 29.9 mph N/A   Mostly Cloudy
1:53 PM 28.0 °F 14.9 °F 14.0 °F 56% 30.37 in 10.0 mi SSE 19.6 mph - N/A   Clear
2:53 PM 28.0 °F 14.6 °F 12.9 °F 53% 30.39 in 10.0 mi SSE 20.7 mph 27.6 mph N/A   Clear
3:53 PM 27.0 °F 13.9 °F 14.0 °F 58% 30.43 in 10.0 mi SSE 18.4 mph 24.2 mph N/A   Overcast
4:53 PM 21.9 °F 7.3 °F 12.0 °F 66% 30.45 in 10.0 mi SSE 18.4 mph - N/A   Mostly Cloudy
5:53 PM 19.9 °F 6.7 °F 12.0 °F 71% 30.50 in 10.0 mi SSE 13.8 mph - N/A   Clear
6:53 PM 18.0 °F 3.6 °F 10.9 °F 74% 30.54 in 10.0 mi SSE 15.0 mph - N/A   Clear
7:53 PM 16.0 °F 4.4 °F 9.0 °F 74% 30.57 in 10.0 mi South 9.2 mph - N/A   Clear
8:53 PM 14.0 °F 2.9 °F 9.0 °F 80% 30.61 in 10.0 mi SE 8.1 mph - N/A   Clear
9:53 PM 14.0 °F 2.9 °F 9.0 °F 80% 30.62 in 10.0 mi SE 8.1 mph - N/A   Clear
10:53 PM 14.0 °F 3.9 °F 9.0 °F 80% 30.62 in 10.0 mi ESE 6.9 mph - N/A   Clear
11:53 PM 10.9 °F 2.9 °F 7.0 °F 84% 30.63 in 10.0 mi NE 4.6 mph - N/A   Clear